Home   Weather   Reinach   Past weeks

Flag for Switzerland Past Weather in Reinach, Basel-Land, Switzerland — Yesterday and Last 2 Weeks

Now
21 °F

Low clouds.


Feels Like: 21 °F
Forecast: 14 / 27 °F
Wind: 2 mph from North

Location: Bale-Mulhouse

Current Time: Jan 23, 2017 at 8:02:18 pm

Latest Report: Jan 23, 2017 at 7:00 pm


Visibility: 1 mi

Pressure: 30.35 "Hg

Humidity: 94%

Dew Point: 20 °F

Location of ReinachLocation

Past Weather in Reinach — Graph

°F

Reinach Temperature Yesterday

Maximum temperature yesterday: 31 °F (at 3:00 pm)
Minimum temperature yesterday: 13 °F (at 6:00 am)
Average temperature yesterday: 21 °F

High & Low Weather Summary for the Past Weeks

 TemperatureHumidityPressure
High50 °F (Jan 12, 11:00 pm)98% (Jan 10, 2:00 pm)30.57 "Hg (Jan 10, 2:00 pm)
Low13 °F (Jan 22, 6:00 am)51% (Jan 18, 3:00 pm)29.47 "Hg (Jan 12, 11:00 pm)
Average29 °F83%30.25 "Hg
* Reported Jan 8 6:00 pm — Jan 23 6:00 pm, Reinach, Weather by CustomWeather, © 2017

Note: Actual official high and low records may vary slightly from our data, if they occured in-between our weather recording intervals... More about our weather records

Advertising

Reinach Weather History for the Previous 24 Hours

Scroll right to see more
 ConditionsComfort  
Time TempWeatherWind HumidityBarometerVisibility
6:00 pm
Mon, Jan 23
21 °FFog.3 mph94%30.35 "Hg1 mi
5:00 pm21 °FFog.3 mph92%30.34 "Hg1 mi
4:00 pm21 °FFog.5 mph92%30.33 "Hg2 mi
3:00 pm22 °FFog.5 mph92%30.32 "Hg2 mi
2:00 pm21 °FFog.1 mph91%30.32 "Hg2 mi
1:00 pm21 °FFog.3 mph92%30.34 "Hg2 mi
12:00 pm21 °FFog.3 mph92%30.35 "Hg2 mi
11:00 am21 °FFog.3 mph92%30.36 "Hg2 mi
10:00 am20 °FLow clouds.2 mph92%30.35 "Hg2 mi
9:00 am20 °FFog.3 mph93%30.35 "Hg1 mi
8:00 am20 °FFog.3 mph93%30.34 "Hg1 mi
7:00 am21 °FFog.3 mph93%30.33 "Hg2 mi
6:00 am21 °FFog.1 mph92%30.33 "Hg2 mi
5:00 am21 °FFog.No wind94%30.33 "Hg2 mi
4:00 am21 °FLow clouds.3 mph94%30.33 "Hg2 mi
3:00 am21 °FLow clouds.5 mph94%30.33 "Hg2 mi
2:00 am20 °FLow clouds.No wind93%30.34 "Hg2 mi
1:00 am20 °FLow clouds.3 mph94%30.35 "Hg1 mi
12:00 am19 °FFog.3 mph94%30.35 "Hg0 mi
11:00 pm
Sun, Jan 22
20 °FFog.2 mph95%30.34 "Hg0 mi
10:00 pm20 °FFog.1 mph94%30.34 "Hg0 mi
9:00 pm20 °FFog.3 mph95%30.34 "Hg0 mi
8:00 pm21 °FFog.6 mph97%30.33 "Hg0 mi
Weather by CustomWeather, © 2017

See weather overviewHow to use our weather pages